Time,TemperatureF,DewpointF,PressureIn,WindDirection,WindDirectionDegrees,WindSpeedMPH,WindSpeedGustMPH,Humidity,HourlyPrecipIn,Conditions,Clouds,dailyrainin,SoftwareType,DateUTC
2013-03-27 00:05:00,37.3,27.0,30.20,NW,304,1.0,3.0,66,0.00,,,0.00,weatherlink.com 1.10,2013-03-27 04:05:00,
2013-03-27 00:20:00,37.1,27.0,30.20,WNW,282,0.0,3.0,67,0.00,,,0.00,weatherlink.com 1.10,2013-03-27 04:20:00,
2013-03-27 00:35:00,37.5,27.0,30.21,WNW,286,4.0,4.0,66,0.00,,,0.00,weatherlink.com 1.10,2013-03-27 04:35:00,
2013-03-27 00:50:00,37.3,27.0,30.21,WNW,302,0.0,4.0,66,0.00,,,0.00,weatherlink.com 1.10,2013-03-27 04:50:00,
2013-03-27 01:05:00,37.5,27.0,30.21,WNW,282,1.0,5.0,66,0.00,,,0.00,weatherlink.com 1.10,2013-03-27 05:05:00,
2013-03-27 01:20:00,37.6,27.0,30.21,NW,306,0.0,5.0,66,0.00,,,0.00,weatherlink.com 1.10,2013-03-27 05:20:00,
2013-03-27 01:35:00,37.1,27.0,30.21,WNW,296,0.0,3.0,67,0.00,,,0.00,weatherlink.com 1.10,2013-03-27 05:35:00,
2013-03-27 01:51:00,36.7,27.0,30.21,West,275,0.0,4.0,69,0.00,,,0.00,weatherlink.com 1.10,2013-03-27 05:51:00,
2013-03-27 02:06:00,36.2,27.0,30.21,NW,306,0.0,3.0,70,0.00,,,0.00,weatherlink.com 1.10,2013-03-27 06:06:00,
2013-03-27 02:21:00,36.0,27.0,30.20,WNW,298,0.0,5.0,71,0.00,,,0.00,weatherlink.com 1.10,2013-03-27 06:21:00,
2013-03-27 02:36:00,35.7,27.0,30.20,WSW,252,0.0,5.0,72,0.00,,,0.00,weatherlink.com 1.10,2013-03-27 06:36:00,
2013-03-27 02:51:00,35.9,27.0,30.20,NW,317,0.0,4.0,71,0.00,,,0.00,weatherlink.com 1.10,2013-03-27 06:51:00,
2013-03-27 03:06:00,35.9,28.0,30.20,WNW,303,0.0,3.0,72,0.00,,,0.00,weatherlink.com 1.10,2013-03-27 07:06:00,
2013-03-27 03:21:00,35.5,27.0,30.20,NW,313,2.0,4.0,72,0.00,,,0.00,weatherlink.com 1.10,2013-03-27 07:21:00,
2013-03-27 03:36:00,35.6,27.0,30.20,NW,321,1.0,4.0,72,0.00,,,0.00,weatherlink.com 1.10,2013-03-27 07:36:00,
2013-03-27 04:06:00,35.1,27.0,30.20,WNW,297,0.0,3.0,73,0.01,,,0.01,weatherlink.com 1.10,2013-03-27 08:06:00,
2013-03-27 04:37:00,34.5,27.0,30.21,SW,235,0.0,1.0,74,0.01,,,0.01,weatherlink.com 1.10,2013-03-27 08:37:00,
2013-03-27 04:51:00,34.1,27.0,30.21,WNW,286,0.0,3.0,76,0.01,,,0.01,weatherlink.com 1.10,2013-03-27 08:51:00,
2013-03-27 05:06:00,33.8,27.0,30.21,WNW,286,0.0,4.0,77,0.00,,,0.01,weatherlink.com 1.10,2013-03-27 09:06:00,
2013-03-27 05:21:00,33.6,27.0,30.22,WNW,297,0.0,2.0,77,0.00,,,0.01,weatherlink.com 1.10,2013-03-27 09:21:00,
2013-03-27 05:36:00,33.6,27.0,30.22,WNW,294,1.0,4.0,78,0.00,,,0.01,weatherlink.com 1.10,2013-03-27 09:36:00,
2013-03-27 05:51:00,33.8,27.0,30.22,NNW,344,2.0,4.0,77,0.00,,,0.01,weatherlink.com 1.10,2013-03-27 09:51:00,
2013-03-27 06:06:00,33.9,27.0,30.23,NW,317,0.0,3.0,76,0.00,,,0.01,weatherlink.com 1.10,2013-03-27 10:06:00,
2013-03-27 06:21:00,33.6,27.0,30.24,WNW,297,1.0,2.0,77,0.00,,,0.01,weatherlink.com 1.10,2013-03-27 10:21:00,
2013-03-27 06:36:00,33.5,27.0,30.24,WNW,300,0.0,3.0,77,0.00,,,0.01,weatherlink.com 1.10,2013-03-27 10:36:00,
2013-03-27 06:51:00,33.2,27.0,30.24,WNW,300,0.0,1.0,78,0.00,,,0.01,weatherlink.com 1.10,2013-03-27 10:51:00,
2013-03-27 07:06:00,32.6,27.0,30.25,WNW,300,0.0,0.0,79,0.00,,,0.01,weatherlink.com 1.10,2013-03-27 11:06:00,
2013-03-27 07:21:00,32.2,27.0,30.25,NW,315,0.0,2.0,81,0.00,,,0.01,weatherlink.com 1.10,2013-03-27 11:21:00,
2013-03-27 07:36:00,32.6,27.0,30.27,WNW,302,2.0,3.0,80,0.00,,,0.01,weatherlink.com 1.10,2013-03-27 11:36:00,
2013-03-27 07:51:00,33.5,28.0,30.27,WNW,302,1.0,4.0,79,0.00,,,0.01,weatherlink.com 1.10,2013-03-27 11:51:00,
2013-03-27 08:06:00,34.2,27.0,30.27,WNW,295,4.0,5.0,76,0.00,,,0.01,weatherlink.com 1.10,2013-03-27 12:06:00,
2013-03-27 08:21:00,35.1,28.0,30.28,NNW,330,2.0,4.0,75,0.01,,,0.02,weatherlink.com 1.10,2013-03-27 12:21:00,
2013-03-27 08:36:00,36.2,28.0,30.28,NW,320,3.0,6.0,72,0.01,,,0.02,weatherlink.com 1.10,2013-03-27 12:36:00,
2013-03-27 08:51:00,37.2,28.0,30.28,WNW,297,3.0,6.0,70,0.01,,,0.02,weatherlink.com 1.10,2013-03-27 12:51:00,
2013-03-27 09:06:00,38.1,28.0,30.29,WNW,294,2.0,7.0,68,0.01,,,0.02,weatherlink.com 1.10,2013-03-27 13:06:00,
2013-03-27 09:21:00,39.3,28.0,30.29,NW,319,2.0,10.0,64,0.00,,,0.02,weatherlink.com 1.10,2013-03-27 13:21:00,
2013-03-27 09:37:00,40.6,26.0,30.29,NNE,19,9.0,9.0,57,0.00,,,0.02,weatherlink.com 1.10,2013-03-27 13:37:00,
2013-03-27 09:52:00,42.3,27.0,30.28,West,277,3.0,9.0,54,0.00,,,0.02,weatherlink.com 1.10,2013-03-27 13:52:00,
2013-03-27 10:07:00,42.4,26.0,30.28,NNW,338,2.0,7.0,52,0.00,,,0.02,weatherlink.com 1.10,2013-03-27 14:07:00,
2013-03-27 10:22:00,43.2,25.0,30.28,NW,319,3.0,7.0,49,0.00,,,0.02,weatherlink.com 1.10,2013-03-27 14:22:00,
2013-03-27 10:37:00,43.6,26.0,30.28,WNW,302,4.0,10.0,50,0.00,,,0.02,weatherlink.com 1.10,2013-03-27 14:37:00,
2013-03-27 10:52:00,44.5,25.0,30.27,West,274,3.0,10.0,47,0.00,,,0.02,weatherlink.com 1.10,2013-03-27 14:52:00,
2013-03-27 11:07:00,47.8,26.0,30.27,NW,316,3.0,10.0,42,0.00,,,0.02,weatherlink.com 1.10,2013-03-27 15:07:00,
2013-03-27 11:22:00,49.4,25.0,30.27,West,268,1.0,11.0,39,0.00,,,0.02,weatherlink.com 1.10,2013-03-27 15:22:00,
2013-03-27 11:37:00,51.3,25.0,30.27,NNW,332,2.0,9.0,36,0.00,,,0.02,weatherlink.com 1.10,2013-03-27 15:37:00,
2013-03-27 11:52:00,52.1,24.0,30.27,NNW,348,3.0,13.0,34,0.00,,,0.02,weatherlink.com 1.10,2013-03-27 15:52:00,
2013-03-27 12:07:00,53.4,25.0,30.26,NW,323,2.0,8.0,33,0.00,,,0.02,weatherlink.com 1.10,2013-03-27 16:07:00,
2013-03-27 12:22:00,52.1,24.0,30.26,North,355,6.0,10.0,33,0.00,,,0.02,weatherlink.com 1.10,2013-03-27 16:22:00,
2013-03-27 12:37:00,52.4,24.0,30.26,NE,41,2.0,10.0,33,0.00,,,0.02,weatherlink.com 1.10,2013-03-27 16:37:00,
2013-03-27 12:52:00,51.5,25.0,30.26,NNW,334,4.0,11.0,36,0.01,,,0.03,weatherlink.com 1.10,2013-03-27 16:52:00,
2013-03-27 13:07:00,52.3,25.0,30.26,WNW,287,4.0,9.0,34,0.01,,,0.03,weatherlink.com 1.10,2013-03-27 17:07:00,
2013-03-27 13:22:00,52.4,23.0,30.26,NW,309,3.0,13.0,32,0.01,,,0.03,weatherlink.com 1.10,2013-03-27 17:22:00,
2013-03-27 13:37:00,54.2,24.0,30.25,NW,306,3.0,15.0,31,0.01,,,0.03,weatherlink.com 1.10,2013-03-27 17:37:00,
2013-03-27 13:52:00,53.0,24.0,30.25,WNW,300,4.0,12.0,32,0.00,,,0.03,weatherlink.com 1.10,2013-03-27 17:52:00,
2013-03-27 14:07:00,54.0,23.0,30.24,North,360,6.0,11.0,30,0.00,,,0.03,weatherlink.com 1.10,2013-03-27 18:07:00,
2013-03-27 14:22:00,55.1,23.0,30.24,NW,321,3.0,11.0,29,0.00,,,0.03,weatherlink.com 1.10,2013-03-27 18:22:00,
2013-03-27 14:37:00,54.3,23.0,30.23,West,279,4.0,10.0,30,0.00,,,0.03,weatherlink.com 1.10,2013-03-27 18:37:00,
2013-03-27 14:52:00,53.8,24.0,30.23,West,274,6.0,11.0,32,0.00,,,0.03,weatherlink.com 1.10,2013-03-27 18:52:00,
2013-03-27 15:07:00,54.8,24.0,30.23,West,273,6.0,11.0,30,0.00,,,0.03,weatherlink.com 1.10,2013-03-27 19:07:00,
2013-03-27 15:23:00,55.0,22.0,30.23,WNW,284,10.0,13.0,28,0.01,,,0.04,weatherlink.com 1.10,2013-03-27 19:23:00,
2013-03-27 15:37:00,55.4,24.0,30.23,WNW,295,10.0,10.0,30,0.01,,,0.04,weatherlink.com 1.10,2013-03-27 19:37:00,
2013-03-27 15:52:00,55.4,23.0,30.22,NNW,340,4.0,12.0,29,0.01,,,0.04,weatherlink.com 1.10,2013-03-27 19:52:00,
2013-03-27 16:07:00,54.8,23.0,30.23,WNW,287,3.0,10.0,29,0.01,,,0.04,weatherlink.com 1.10,2013-03-27 20:07:00,
2013-03-27 16:23:00,55.0,22.0,30.22,WSW,248,4.0,11.0,28,0.00,,,0.04,weatherlink.com 1.10,2013-03-27 20:23:00,
2013-03-27 16:37:00,55.5,24.0,30.22,NNW,340,2.0,7.0,29,0.00,,,0.04,weatherlink.com 1.10,2013-03-27 20:37:00,
2013-03-27 16:53:00,54.6,23.0,30.22,WNW,294,3.0,13.0,29,0.00,,,0.04,weatherlink.com 1.10,2013-03-27 20:53:00,
2013-03-27 17:07:00,52.9,21.0,30.22,ENE,63,3.0,12.0,29,0.00,,,0.04,weatherlink.com 1.10,2013-03-27 21:07:00,
2013-03-27 17:22:00,52.1,22.0,30.23,NW,304,8.0,10.0,31,0.00,,,0.04,weatherlink.com 1.10,2013-03-27 21:22:00,
2013-03-27 17:38:00,51.5,22.0,30.23,NW,322,3.0,12.0,31,0.00,,,0.04,weatherlink.com 1.10,2013-03-27 21:38:00,
2013-03-27 18:08:00,50.4,21.0,30.23,NNE,13,1.0,9.0,31,0.00,,,0.04,weatherlink.com 1.10,2013-03-27 22:08:00,
2013-03-27 18:23:00,49.2,21.0,30.24,West,271,5.0,11.0,33,0.00,,,0.04,weatherlink.com 1.10,2013-03-27 22:23:00,
2013-03-27 18:38:00,48.7,21.0,30.24,NW,313,3.0,7.0,33,0.00,,,0.04,weatherlink.com 1.10,2013-03-27 22:38:00,
2013-03-27 18:53:00,48.0,21.0,30.25,NW,309,1.0,8.0,34,0.00,,,0.04,weatherlink.com 1.10,2013-03-27 22:53:00,
2013-03-27 19:08:00,47.4,21.0,30.26,WNW,302,2.0,9.0,35,0.00,,,0.04,weatherlink.com 1.10,2013-03-27 23:08:00,
2013-03-27 19:23:00,46.7,21.0,30.26,NNW,344,6.0,8.0,36,0.00,,,0.04,weatherlink.com 1.10,2013-03-27 23:23:00,
2013-03-27 19:38:00,46.0,21.0,30.27,West,275,2.0,7.0,37,0.00,,,0.04,weatherlink.com 1.10,2013-03-27 23:38:00,
2013-03-27 19:53:00,45.2,21.0,30.28,NW,311,0.0,7.0,39,0.00,,,0.04,weatherlink.com 1.10,2013-03-27 23:53:00,
2013-03-27 20:08:00,44.5,21.0,30.29,NW,309,0.0,6.0,40,0.00,,,0.04,weatherlink.com 1.10,2013-03-28 00:08:00,
2013-03-27 20:23:00,43.9,21.0,30.29,WNW,300,0.0,3.0,41,0.00,,,0.04,weatherlink.com 1.10,2013-03-28 00:23:00,
2013-03-27 20:38:00,43.1,22.0,30.29,WNW,300,0.0,0.0,43,0.01,,,0.05,weatherlink.com 1.10,2013-03-28 00:38:00,
2013-03-27 20:53:00,42.2,22.0,30.30,WNW,300,0.0,2.0,44,0.01,,,0.05,weatherlink.com 1.10,2013-03-28 00:53:00,
2013-03-27 21:08:00,41.3,22.0,30.30,WNW,300,0.0,1.0,47,0.01,,,0.05,weatherlink.com 1.10,2013-03-28 01:08:00,
2013-03-27 21:23:00,40.4,22.0,30.30,WNW,300,0.0,0.0,49,0.01,,,0.05,weatherlink.com 1.10,2013-03-28 01:23:00,
2013-03-27 21:38:00,39.6,23.0,30.31,WNW,300,0.0,0.0,51,0.00,,,0.05,weatherlink.com 1.10,2013-03-28 01:38:00,
2013-03-27 21:53:00,38.7,23.0,30.30,WNW,300,0.0,0.0,54,0.00,,,0.05,weatherlink.com 1.10,2013-03-28 01:53:00,
2013-03-27 22:08:00,37.5,24.0,30.31,WNW,300,0.0,0.0,59,0.00,,,0.05,weatherlink.com 1.10,2013-03-28 02:08:00,
2013-03-27 22:23:00,36.5,25.0,30.31,WNW,300,0.0,2.0,63,0.00,,,0.05,weatherlink.com 1.10,2013-03-28 02:23:00,
2013-03-27 22:38:00,35.6,24.0,30.31,West,275,0.0,0.0,64,0.00,,,0.05,weatherlink.com 1.10,2013-03-28 02:38:00,
2013-03-27 22:53:00,35.0,25.0,30.31,West,275,0.0,0.0,67,0.00,,,0.05,weatherlink.com 1.10,2013-03-28 02:53:00,
2013-03-27 23:08:00,34.3,25.0,30.31,West,275,0.0,0.0,69,0.00,,,0.05,weatherlink.com 1.10,2013-03-28 03:08:00,
2013-03-27 23:23:00,33.8,25.0,30.31,West,275,0.0,0.0,69,0.00,,,0.05,weatherlink.com 1.10,2013-03-28 03:23:00,
2013-03-27 23:38:00,33.3,25.0,30.32,West,275,0.0,0.0,72,0.00,,,0.05,weatherlink.com 1.10,2013-03-28 03:38:00,
2013-03-27 23:53:00,32.6,25.0,30.31,West,275,0.0,0.0,73,0.00,,,0.05,weatherlink.com 1.10,2013-03-28 03:53:00,